TimeEDT,TemperatureF,Dew PointF,Humidity,Sea Level PressureIn,VisibilityMPH,Wind Direction,Wind SpeedMPH,Gust SpeedMPH,PrecipitationIn,Events,Conditions,WindDirDegrees,DateUTC
12:15 AM,30.2,28.4,93,30.23,8.0,South,6.9,-,N/A,,Partly Cloudy,190,2011-10-31 04:15:00
12:35 AM,30.2,28.4,93,30.22,10.0,South,6.9,-,N/A,,Clear,170,2011-10-31 04:35:00
12:55 AM,30.2,28.4,93,30.22,10.0,South,4.6,-,N/A,,Clear,180,2011-10-31 04:55:00
1:15 AM,30.2,28.4,93,30.22,9.0,South,5.8,-,N/A,,Clear,170,2011-10-31 05:15:00
1:35 AM,30.2,28.4,93,30.22,10.0,South,5.8,-,N/A,,Clear,180,2011-10-31 05:35:00
1:55 AM,30.2,28.4,93,30.22,10.0,South,8.1,-,N/A,,Clear,180,2011-10-31 05:55:00
2:15 AM,30.2,28.4,93,30.22,10.0,South,6.9,-,N/A,,Mostly Cloudy,180,2011-10-31 06:15:00
2:55 AM,30.2,28.4,93,30.22,10.0,South,5.8,-,N/A,,Overcast,170,2011-10-31 06:55:00
3:15 AM,32.0,28.4,87,30.21,10.0,South,5.8,-,N/A,,Overcast,180,2011-10-31 07:15:00
3:35 AM,32.0,28.4,87,30.21,10.0,South,5.8,-,N/A,,Overcast,180,2011-10-31 07:35:00
3:55 AM,32.0,28.4,87,30.21,10.0,South,5.8,-,N/A,,Mostly Cloudy,180,2011-10-31 07:55:00
4:15 AM,32.0,28.4,87,30.20,10.0,South,5.8,-,N/A,,Mostly Cloudy,180,2011-10-31 08:15:00
4:35 AM,32.0,28.4,87,30.20,10.0,South,5.8,-,N/A,,Partly Cloudy,180,2011-10-31 08:35:00
4:55 AM,32.0,28.4,87,30.19,10.0,SSE,6.9,-,N/A,,Partly Cloudy,160,2011-10-31 08:55:00
5:15 AM,32.0,28.4,87,30.19,10.0,South,4.6,-,N/A,,Partly Cloudy,170,2011-10-31 09:15:00
5:35 AM,32.0,28.4,87,30.19,10.0,South,5.8,-,N/A,,Clear,180,2011-10-31 09:35:00
6:15 AM,32.0,28.4,87,30.19,10.0,SSE,5.8,-,N/A,,Clear,160,2011-10-31 10:15:00
6:35 AM,32.0,28.4,87,30.19,10.0,South,6.9,-,N/A,,Clear,170,2011-10-31 10:35:00
6:55 AM,32.0,28.4,87,30.18,10.0,South,4.6,-,N/A,,Partly Cloudy,170,2011-10-31 10:55:00
7:15 AM,32.0,28.4,87,30.18,10.0,South,4.6,-,N/A,,Partly Cloudy,180,2011-10-31 11:15:00
7:55 AM,32.0,28.4,87,30.18,10.0,SSE,4.6,-,N/A,,Clear,160,2011-10-31 11:55:00
8:15 AM,33.8,28.4,81,30.17,10.0,South,5.8,-,N/A,,Clear,170,2011-10-31 12:15:00
8:35 AM,33.8,28.4,81,30.17,10.0,South,5.8,-,N/A,,Clear,170,2011-10-31 12:35:00
8:55 AM,33.8,28.4,81,30.17,10.0,SSE,5.8,-,N/A,,Clear,160,2011-10-31 12:55:00
9:15 AM,33.8,28.4,81,30.17,10.0,SSE,6.9,-,N/A,,Clear,160,2011-10-31 13:15:00
9:35 AM,35.6,28.4,75,30.17,10.0,SSE,5.8,-,N/A,,Clear,160,2011-10-31 13:35:00
9:55 AM,35.6,30.2,81,30.17,10.0,SSE,8.1,-,N/A,,Clear,160,2011-10-31 13:55:00
10:15 AM,35.6,30.2,81,30.17,10.0,South,6.9,-,N/A,,Clear,170,2011-10-31 14:15:00
10:35 AM,37.4,30.2,75,30.16,10.0,SSE,5.8,-,N/A,,Clear,160,2011-10-31 14:35:00
10:55 AM,37.4,30.2,75,30.16,10.0,South,6.9,-,N/A,,Partly Cloudy,170,2011-10-31 14:55:00
11:15 AM,39.2,30.2,70,30.15,10.0,South,5.8,-,N/A,,Partly Cloudy,170,2011-10-31 15:15:00
11:35 AM,39.2,32.0,75,30.15,10.0,South,6.9,-,N/A,,Clear,180,2011-10-31 15:35:00
11:55 AM,42.8,32.0,66,30.15,10.0,South,11.5,-,N/A,,Clear,190,2011-10-31 15:55:00
12:15 PM,42.8,32.0,66,30.15,10.0,South,11.5,18.4,N/A,,Clear,180,2011-10-31 16:15:00
12:35 PM,44.6,30.2,57,30.15,10.0,South,9.2,17.3,N/A,,Clear,180,2011-10-31 16:35:00
12:55 PM,44.6,30.2,57,30.13,10.0,South,8.1,16.1,N/A,,Partly Cloudy,170,2011-10-31 16:55:00
1:15 PM,44.6,32.0,61,30.13,10.0,South,9.2,-,N/A,,Partly Cloudy,190,2011-10-31 17:15:00
1:35 PM,44.6,32.0,61,30.12,10.0,SSE,9.2,-,N/A,,Mostly Cloudy,150,2011-10-31 17:35:00
1:55 PM,46.4,32.0,57,30.11,10.0,South,12.7,-,N/A,,Mostly Cloudy,170,2011-10-31 17:55:00
2:15 PM,46.4,30.2,53,30.11,10.0,SSE,10.4,-,N/A,,Mostly Cloudy,160,2011-10-31 18:15:00
2:35 PM,46.4,33.8,62,30.11,10.0,SSE,8.1,-,N/A,,Mostly Cloudy,150,2011-10-31 18:35:00
2:55 PM,46.4,33.8,62,30.11,10.0,South,9.2,-,N/A,,Overcast,180,2011-10-31 18:55:00
3:15 PM,46.4,33.8,62,30.11,10.0,SSE,9.2,-,N/A,,Overcast,160,2011-10-31 19:15:00
3:35 PM,46.4,33.8,62,30.11,10.0,SSE,6.9,-,N/A,,Overcast,150,2011-10-31 19:35:00
3:55 PM,46.4,33.8,62,30.12,10.0,South,8.1,-,N/A,,Overcast,170,2011-10-31 19:55:00
4:15 PM,46.4,33.8,62,30.12,10.0,South,6.9,-,N/A,,Overcast,170,2011-10-31 20:15:00
4:35 PM,46.4,33.8,62,30.13,10.0,South,6.9,-,N/A,,Overcast,190,2011-10-31 20:35:00
4:55 PM,44.6,33.8,66,30.13,10.0,South,8.1,-,N/A,,Overcast,190,2011-10-31 20:55:00
5:15 PM,44.6,35.6,71,30.13,10.0,South,6.9,-,N/A,,Overcast,180,2011-10-31 21:15:00
5:35 PM,42.8,35.6,76,30.15,10.0,SSW,8.1,-,N/A,,Overcast,200,2011-10-31 21:35:00
6:15 PM,42.8,37.4,81,30.15,10.0,South,9.2,-,N/A,,Overcast,170,2011-10-31 22:15:00
6:35 PM,41.0,37.4,87,30.15,10.0,SSE,9.2,-,N/A,,Overcast,150,2011-10-31 22:35:00
6:55 PM,41.0,37.4,87,30.16,10.0,SSE,6.9,-,N/A,,Overcast,160,2011-10-31 22:55:00
7:15 PM,41.0,35.6,81,30.17,10.0,SSE,8.1,16.1,N/A,,Overcast,160,2011-10-31 23:15:00
7:35 PM,39.2,37.4,93,30.18,10.0,SSE,9.2,-,N/A,,Overcast,150,2011-10-31 23:35:00
8:15 PM,39.2,35.6,87,30.19,10.0,South,8.1,-,N/A,,Overcast,170,2011-11-01 00:15:00
8:35 PM,39.2,35.6,87,30.19,10.0,SSE,8.1,-,N/A,,Overcast,160,2011-11-01 00:35:00
8:55 PM,39.2,35.6,87,30.19,10.0,SSE,5.8,-,N/A,,Mostly Cloudy,160,2011-11-01 00:55:00
9:15 PM,39.2,35.6,87,30.19,10.0,SSE,6.9,-,N/A,,Overcast,160,2011-11-01 01:15:00
9:35 PM,37.4,35.6,93,30.19,10.0,South,9.2,-,N/A,,Overcast,180,2011-11-01 01:35:00
9:55 PM,39.2,33.8,81,30.20,10.0,South,9.2,-,N/A,,Overcast,170,2011-11-01 01:55:00
10:15 PM,39.2,33.8,81,30.20,10.0,South,10.4,-,N/A,,Overcast,170,2011-11-01 02:15:00
10:35 PM,39.2,33.8,81,30.20,10.0,South,9.2,-,N/A,,Overcast,170,2011-11-01 02:35:00
10:55 PM,39.2,33.8,81,30.20,10.0,South,10.4,-,N/A,,Overcast,170,2011-11-01 02:55:00
11:15 PM,39.2,33.8,81,30.20,10.0,South,10.4,16.1,N/A,,Overcast,170,2011-11-01 03:15:00
11:35 PM,39.2,33.8,81,30.20,10.0,South,10.4,-,N/A,,Overcast,170,2011-11-01 03:35:00
11:55 PM,39.2,33.8,81,30.20,10.0,South,9.2,17.3,N/A,,Overcast,170,2011-11-01 03:55:00